| time (UTC) | temp F | wind direction | speed MPH | gust MPH | rain 1hr in | rain 24hr in | rain mn in | humidity % | barometer mb |
| 20260506095412 | 75 | 228 | 0.0 | 0.0 | 0.00 | 0.00 | 0.00 | 96 | 1013.5 |
| 20260506094908 | 76 | 248 | 0.0 | 0.0 | 0.00 | 0.00 | 0.00 | 96 | 1013.2 |
| 20260506094407 | 76 | 231 | 0.0 | 1.0 | 0.00 | 0.00 | 0.00 | 95 | 1013.2 |
| 20260506093904 | 76 | 221 | 1.0 | 1.0 | 0.00 | 0.00 | 0.00 | 95 | 1013.0 |
| 20260506093402 | 76 | 244 | 0.0 | 0.0 | 0.00 | 0.00 | 0.00 | 95 | 1013.2 |
| 20260506092859 | 76 | 297 | 0.0 | 2.0 | 0.00 | 0.00 | 0.00 | 95 | 1013.1 |
| 20260506092357 | 76 | 273 | 0.0 | 0.0 | 0.00 | 0.00 | 0.00 | 95 | 1013.0 |
| 20260506091853 | 76 | 242 | 0.0 | 1.0 | 0.00 | 0.00 | 0.00 | 95 | 1013.0 |
| 20260506091352 | 76 | 39 | 3.0 | 7.0 | 0.00 | 0.00 | 0.00 | 95 | 1013.0 |
| 20260506090848 | 77 | 254 | 0.0 | 0.0 | 0.00 | 0.00 | 0.00 | 95 | 1013.2 |
| 20260506090346 | 77 | 266 | 1.0 | 2.0 | 0.00 | 0.00 | 0.00 | 94 | 1013.4 |
| 20260506085843 | 77 | 256 | 0.0 | 0.0 | 0.00 | 0.00 | 0.00 | 95 | 1013.4 |
| 20260506085339 | 77 | 279 | 0.0 | 0.0 | 0.00 | 0.00 | 0.00 | 94 | 1013.3 |
| 20260506084836 | 77 | 268 | 0.0 | 1.0 | 0.00 | 0.00 | 0.00 | 94 | 1013.4 |
| 20260506084332 | 77 | 331 | 2.0 | 3.0 | 0.00 | 0.00 | 0.00 | 94 | 1013.1 |
| 20260506083829 | 77 | 209 | 0.0 | 1.0 | 0.00 | 0.00 | 0.00 | 94 | 1013.4 |
| 20260506083326 | 77 | 137 | 1.0 | 1.0 | 0.00 | 0.00 | 0.00 | 94 | 1013.4 |
| 20260506082824 | 77 | 220 | 0.0 | 1.0 | 0.00 | 0.00 | 0.00 | 94 | 1013.4 |
| 20260506082320 | 77 | 189 | 1.0 | 2.0 | 0.00 | 0.00 | 0.00 | 94 | 1013.4 |
| 20260506081816 | 77 | 233 | 0.0 | 0.0 | 0.00 | 0.00 | 0.00 | 94 | 1013.6 |
| 20260506081315 | 77 | 232 | 0.0 | 0.0 | 0.00 | 0.00 | 0.00 | 94 | 1013.6 |
| 20260506080812 | 77 | 245 | 0.0 | 0.0 | 0.00 | 0.00 | 0.00 | 94 | 1013.6 |
| 20260506080308 | 77 | 253 | 0.0 | 0.0 | 0.00 | 0.00 | 0.00 | 94 | 1013.9 |
| 20260506073252 | 77 | 324 | 0.0 | 0.0 | 0.00 | 0.00 | 0.00 | 94 | 1014.1 |
| 20260506072749 | 77 | 237 | 0.0 | 1.0 | 0.00 | 0.00 | 0.00 | 94 | 1014.4 |
| 20260506072246 | 77 | 243 | 0.0 | 0.0 | 0.00 | 0.00 | 0.00 | 93 | 1014.3 |
| 20260506071744 | 77 | 325 | 0.0 | 1.0 | 0.00 | 0.00 | 0.00 | 93 | 1014.2 |
| 20260506071242 | 77 | 275 | 0.0 | 0.0 | 0.00 | 0.00 | 0.00 | 93 | 1014.5 |
| 20260506070739 | 77 | 339 | 0.0 | 1.0 | 0.00 | 0.00 | 0.00 | 93 | 1014.4 |
| 20260506070236 | 77 | 63 | 1.0 | 2.0 | 0.00 | 0.00 | 0.00 | 93 | 1014.3 |
| 20260506062212 | 77 | 266 | 1.0 | 2.0 | 0.00 | 0.00 | 0.00 | 93 | 1014.5 |
| 20260506061708 | 77 | 230 | 0.0 | 2.0 | 0.00 | 0.00 | 0.00 | 93 | 1014.4 |
| 20260506061206 | 77 | 224 | 1.0 | 1.0 | 0.00 | 0.00 | 0.00 | 93 | 1014.7 |
| 20260506060705 | 77 | 249 | 0.0 | 1.0 | 0.00 | 0.00 | 0.00 | 93 | 1014.7 |
| 20260506060201 | 77 | 213 | 0.0 | 2.0 | 0.00 | 0.00 | 0.00 | 93 | 1014.9 |
| 20260506051133 | 77 | 229 | 0.0 | 1.0 | 0.00 | 0.00 | 0.00 | 93 | 1015.0 |
| 20260506050631 | 77 | 259 | 0.0 | 2.0 | 0.00 | 0.00 | 0.00 | 93 | 1015.0 |
| 20260506050128 | 77 | 237 | 0.0 | 2.0 | 0.00 | 0.00 | 0.00 | 93 | 1015.0 |
| 20260506045121 | 77 | 246 | 1.0 | 2.0 | 0.00 | 0.00 | 0.00 | 92 | 1014.7 |
| 20260506044619 | 78 | 44 | 1.0 | 2.0 | 0.00 | 0.00 | 0.00 | 92 | 1014.5 |
| 20260506044116 | 78 | 200 | 1.0 | 1.0 | 0.00 | 0.00 | 0.00 | 91 | 1015.0 |
| 20260506043613 | 78 | 227 | 0.0 | 1.0 | 0.00 | 0.00 | 0.00 | 91 | 1015.0 |
| 20260506043112 | 78 | 208 | 1.0 | 2.0 | 0.00 | 0.00 | 0.00 | 91 | 1014.9 |
| 20260506042610 | 78 | 192 | 1.0 | 2.0 | 0.00 | 0.00 | 0.00 | 91 | 1015.1 |
| 20260506042108 | 78 | 117 | 0.0 | 3.0 | 0.00 | 0.00 | 0.00 | 91 | 1015.1 |
| 20260506041606 | 78 | 289 | 0.0 | 1.0 | 0.00 | 0.00 | 0.00 | 91 | 1014.7 |
| 20260506041103 | 78 | 311 | 0.0 | 1.0 | 0.00 | 0.00 | 0.00 | 91 | 1014.7 |
| 20260506040601 | 78 | 166 | 1.0 | 3.0 | 0.00 | 0.00 | 0.00 | 91 | 1014.7 |
| 20260506040056 | 78 | 265 | 1.0 | 3.0 | 0.00 | 0.00 | 0.00 | 91 | 1014.8 |
| 20260506035554 | 78 | 255 | 0.0 | 1.0 | 0.00 | 0.00 | 0.00 | 90 | 1014.9 |
| 20260506035050 | 78 | 277 | 0.0 | 1.0 | 0.00 | 0.00 | 0.00 | 90 | 1014.8 |
| 20260506034548 | 78 | 239 | 0.0 | 1.0 | 0.00 | 0.00 | 0.00 | 90 | 1014.6 |
| 20260506034044 | 78 | 182 | 1.0 | 1.0 | 0.00 | 0.00 | 0.00 | 90 | 1014.7 |
| 20260506033542 | 78 | 255 | 0.0 | 2.0 | 0.00 | 0.00 | 0.00 | 90 | 1014.6 |
| 20260506033038 | 78 | 207 | 0.0 | 1.0 | 0.00 | 0.00 | 0.00 | 89 | 1014.6 |
| 20260506032536 | 78 | 201 | 1.0 | 6.0 | 0.00 | 0.00 | 0.00 | 89 | 1014.6 |
| 20260506032032 | 78 | 226 | 1.0 | 3.0 | 0.00 | 0.00 | 0.00 | 89 | 1014.4 |
| 20260506031530 | 78 | 242 | 1.0 | 3.0 | 0.00 | 0.00 | 0.00 | 89 | 1014.4 |
| 20260506031027 | 78 | 329 | 0.0 | 1.0 | 0.00 | 0.00 | 0.00 | 89 | 1014.4 |
| 20260506030525 | 78 | 232 | 1.0 | 3.0 | 0.00 | 0.00 | 0.00 | 89 | 1014.1 |
| 20260506030022 | 79 | 251 | 1.0 | 1.0 | 0.00 | 0.00 | 0.00 | 88 | 1014.2 |
| 20260506025519 | 78 | 270 | 0.0 | 1.0 | 0.00 | 0.00 | 0.00 | 88 | 1014.1 |
| 20260506025015 | 79 | 262 | 0.0 | 1.0 | 0.00 | 0.00 | 0.00 | 88 | 1014.1 |
| 20260506024512 | 79 | 270 | 1.0 | 5.0 | 0.00 | 0.00 | 0.00 | 88 | 1013.9 |
| 20260506024008 | 79 | 197 | 0.0 | 0.0 | 0.00 | 0.00 | 0.00 | 88 | 1013.9 |
| 20260506023505 | 79 | 219 | 1.0 | 3.0 | 0.00 | 0.00 | 0.00 | 87 | 1013.5 |
| 20260506023002 | 79 | 123 | 1.0 | 2.0 | 0.00 | 0.00 | 0.00 | 87 | 1013.5 |
| 20260506022500 | 79 | 245 | 0.0 | 5.0 | 0.00 | 0.00 | 0.00 | 87 | 1013.4 |
| 20260506021957 | 79 | 248 | 0.0 | 1.0 | 0.00 | 0.00 | 0.00 | 87 | 1013.4 |
| 20260506021454 | 79 | 238 | 0.0 | 1.0 | 0.00 | 0.00 | 0.00 | 86 | 1013.3 |
| 20260506020952 | 79 | 54 | 1.0 | 1.0 | 0.00 | 0.00 | 0.00 | 86 | 1013.3 |
| 20260506020449 | 79 | 238 | 0.0 | 0.0 | 0.00 | 0.00 | 0.00 | 86 | 1013.1 |
| 20260506015946 | 79 | 224 | 0.0 | 0.0 | 0.00 | 0.00 | 0.00 | 86 | 1013.1 |
| 20260506015443 | 79 | 221 | 0.0 | 1.0 | 0.00 | 0.00 | 0.00 | 85 | 1013.0 |
| 20260506014940 | 79 | 279 | 0.0 | 0.0 | 0.00 | 0.00 | 0.00 | 85 | 1013.0 |
| 20260506014437 | 79 | 207 | 0.0 | 1.0 | 0.00 | 0.00 | 0.00 | 84 | 1012.9 |
| 20260506013933 | 79 | 208 | 0.0 | 1.0 | 0.00 | 0.00 | 0.00 | 84 | 1012.6 |
| 20260506013432 | 79 | 242 | 0.0 | 1.0 | 0.00 | 0.00 | 0.00 | 84 | 1012.6 |
| 20260506012928 | 80 | 267 | 0.0 | 1.0 | 0.00 | 0.00 | 0.00 | 84 | 1012.7 |
| 20260506012424 | 80 | 281 | 0.0 | 1.0 | 0.00 | 0.00 | 0.00 | 84 | 1012.4 |
| 20260506011921 | 80 | 236 | 0.0 | 1.0 | 0.00 | 0.00 | 0.00 | 84 | 1012.5 |
| 20260506011418 | 80 | 268 | 0.0 | 1.0 | 0.00 | 0.00 | 0.00 | 83 | 1012.3 |
| 20260506010915 | 80 | 281 | 0.0 | 1.0 | 0.00 | 0.00 | 0.00 | 83 | 1012.2 |
| 20260506010414 | 80 | 282 | 0.0 | 1.0 | 0.00 | 0.00 | 0.00 | 83 | 1012.2 |
| 20260506005910 | 80 | 145 | 1.0 | 2.0 | 0.00 | 0.00 | 0.00 | 83 | 1012.6 |
| 20260506005408 | 80 | 305 | 0.0 | 2.0 | 0.00 | 0.00 | 0.00 | 83 | 1012.5 |
| 20260506004903 | 80 | 286 | 0.0 | 1.0 | 0.00 | 0.00 | 0.00 | 83 | 1012.4 |
| 20260506004401 | 80 | 259 | 2.0 | 2.0 | 0.00 | 0.00 | 0.00 | 82 | 1012.5 |
| 20260506003857 | 81 | 230 | 0.0 | 1.0 | 0.00 | 0.00 | 0.00 | 82 | |
| 20260506003353 | 81 | 224 | 0.0 | 1.0 | 0.00 | 0.00 | 0.00 | 82 | |
| 20260506002849 | 81 | 231 | 0.0 | 1.0 | 0.00 | 0.00 | 0.00 | 82 | |
| 20260506002346 | 81 | 314 | 1.0 | 1.0 | 0.00 | 0.00 | 0.00 | 82 | |
| 20260506001842 | 81 | 237 | 1.0 | 2.0 | 0.00 | 0.00 | 0.00 | 82 | |
| 20260506001339 | 81 | 223 | 0.0 | 1.0 | 0.00 | 0.00 | 0.00 | 82 | |
| 20260506000836 | 81 | 187 | 1.0 | 1.0 | 0.00 | 0.00 | 0.00 | 82 | |
| 20260506000334 | 81 | 275 | 0.0 | 2.0 | 0.00 | 0.00 | 0.00 | 82 | |
| 20260505235830 | 81 | 271 | 1.0 | 3.0 | 0.00 | 0.00 | 0.00 | 82 | |
| 20260505235328 | 82 | 253 | 4.0 | 5.0 | 0.00 | 0.00 | 0.00 | 82 | |
| 20260505234824 | 82 | 242 | 1.0 | 2.0 | 0.00 | 0.00 | 0.00 | 82 | |
| 20260505234323 | 82 | 329 | 0.0 | 1.0 | 0.00 | 0.00 | 0.00 | 82 | |
| 20260505233819 | 82 | 164 | 1.0 | 2.0 | 0.00 | 0.00 | 0.00 | 81 | |
| 20260505233317 | 82 | 235 | 0.0 | 2.0 | 0.00 | 0.00 | 0.00 | 81 | |
| 20260505232814 | 82 | 243 | 1.0 | 1.0 | 0.00 | 0.00 | 0.00 | 82 | |
| 20260505232311 | 82 | 286 | 0.0 | 1.0 | 0.00 | 0.00 | 0.00 | 81 | |
| 20260505231808 | 82 | 255 | 1.0 | 2.0 | 0.00 | 0.00 | 0.00 | 81 | |
| 20260505231307 | 83 | 216 | 1.0 | 2.0 | 0.00 | 0.00 | 0.00 | 81 | |
| 20260505230804 | 83 | 187 | 0.0 | 1.0 | 0.00 | 0.00 | 0.00 | 80 | |
| 20260505230301 | 83 | 208 | 0.0 | 0.0 | 0.00 | 0.00 | 0.00 | 80 | |
| 20260505225757 | 83 | 241 | 0.0 | 3.0 | 0.00 | 0.00 | 0.00 | 80 | |
| 20260505225255 | 83 | 231 | 1.0 | 2.0 | 0.00 | 0.00 | 0.00 | 79 | |
| 20260505224749 | 83 | 292 | 1.0 | 2.0 | 0.00 | 0.00 | 0.00 | 79 | |
| 20260505224248 | 84 | 258 | 1.0 | 2.0 | 0.00 | 0.00 | 0.00 | 77 | |
| 20260505223745 | 84 | 212 | 1.0 | 1.0 | 0.00 | 0.00 | 0.00 | 76 | |
| 20260505223241 | 84 | 222 | 1.0 | 2.0 | 0.00 | 0.00 | 0.00 | 76 | |
| 20260505222737 | 84 | 214 | 1.0 | 2.0 | 0.00 | 0.00 | 0.00 | 76 | |
| 20260505222234 | 85 | 198 | 1.0 | 1.0 | 0.00 | 0.00 | 0.00 | 77 | |
| 20260505221731 | 85 | 244 | 0.0 | 1.0 | 0.00 | 0.00 | 0.00 | 77 | |
| 20260505221227 | 84 | 215 | 1.0 | 2.0 | 0.00 | 0.00 | 0.00 | 78 | |
| 20260505220724 | 84 | 263 | 0.0 | 1.0 | 0.00 | 0.00 | 0.00 | 78 | |
| 20260505220222 | 85 | 243 | 1.0 | 3.0 | 0.00 | 0.00 | 0.00 | 77 | |
| 20260505215720 | 84 | 233 | 0.0 | 2.0 | 0.00 | 0.00 | 0.00 | 78 | |
| 20260505215217 | 84 | 237 | 1.0 | 3.0 | 0.00 | 0.00 | 0.00 | 78 | |
| 20260505214715 | 84 | 274 | 0.0 | 1.0 | 0.00 | 0.00 | 0.00 | 78 | |
| 20260505214212 | 85 | 220 | 1.0 | 2.0 | 0.00 | 0.00 | 0.00 | 77 | |
| 20260505213710 | 85 | 234 | 1.0 | 2.0 | 0.00 | 0.00 | 0.00 | 77 | |
| 20260505213207 | 86 | 164 | 2.0 | 6.0 | 0.00 | 0.00 | 0.00 | 76 | 1013.1 |
| 20260505212703 | 86 | 251 | 2.0 | 2.0 | 0.00 | 0.00 | 0.00 | 76 | 1013.1 |
| 20260505212200 | 85 | 236 | 0.0 | 1.0 | 0.00 | 0.00 | 0.00 | 76 | 1013.1 |
| 20260505211657 | 85 | 237 | 3.0 | 5.0 | 0.00 | 0.00 | 0.00 | 75 | 1013.1 |
| 20260505211154 | 85 | 258 | 0.0 | 3.0 | 0.00 | 0.00 | 0.00 | 76 | 1013.1 |
| 20260505210650 | 86 | 258 | 1.0 | 1.0 | 0.00 | 0.00 | 0.00 | 75 | 1013.1 |
| 20260505210147 | 86 | 237 | 1.0 | 1.0 | 0.00 | 0.00 | 0.00 | 75 | 1013.1 |
| 20260505205644 | 86 | 263 | 0.0 | 2.0 | 0.00 | 0.00 | 0.00 | 75 | 1013.1 |
| 20260505205143 | 86 | 235 | 0.0 | 2.0 | 0.00 | 0.00 | 0.00 | 75 | 1013.1 |
| 20260505204639 | 85 | 205 | 1.0 | 1.0 | 0.00 | 0.00 | 0.00 | 76 | 1013.1 |
| 20260505204137 | 85 | 238 | 0.0 | 2.0 | 0.00 | 0.00 | 0.00 | 76 | 1013.1 |
| 20260505203634 | 86 | 234 | 1.0 | 2.0 | 0.00 | 0.00 | 0.00 | 75 | 1013.1 |
| 20260505203131 | 86 | 278 | 0.0 | 2.0 | 0.00 | 0.00 | 0.00 | 75 | 1013.1 |
| 20260505202626 | 86 | 242 | 0.0 | 6.0 | 0.00 | 0.00 | 0.00 | 75 | 1013.1 |
| 20260505202122 | 86 | 232 | 1.0 | 5.0 | 0.00 | 0.00 | 0.00 | 76 | 1013.2 |
| 20260505201620 | 86 | 244 | 1.0 | 7.0 | 0.00 | 0.00 | 0.00 | 76 | 1013.3 |
| 20260505201117 | 85 | 250 | 1.0 | 3.0 | 0.00 | 0.00 | 0.00 | 76 | 1013.2 |
| 20260505200615 | 85 | 253 | 0.0 | 3.0 | 0.00 | 0.00 | 0.00 | 77 | 1013.4 |
| 20260505200112 | 85 | 147 | 2.0 | 7.0 | 0.00 | 0.00 | 0.00 | 77 | 1013.6 |
| 20260505195608 | 85 | 214 | 1.0 | 2.0 | 0.00 | 0.00 | 0.00 | 77 | 1013.5 |
| 20260505195106 | 84 | 253 | 1.0 | 2.0 | 0.00 | 0.00 | 0.00 | 78 | 1013.5 |
| 20260505194603 | 85 | 212 | 0.0 | 1.0 | 0.00 | 0.00 | 0.00 | 78 | 1013.8 |
| 20260505194058 | 85 | 249 | 2.0 | 2.0 | 0.00 | 0.00 | 0.00 | 77 | 1013.7 |
| 20260505193555 | 85 | 270 | 1.0 | 2.0 | 0.00 | 0.00 | 0.00 | 78 | 1013.5 |
| 20260505193052 | 84 | 305 | 1.0 | 1.0 | 0.00 | 0.00 | 0.00 | 79 | 1013.4 |
| 20260505192551 | 84 | 61 | 1.0 | 2.0 | 0.00 | 0.00 | 0.00 | 78 | 1013.8 |
| 20260505192048 | 84 | 260 | 1.0 | 3.0 | 0.00 | 0.00 | 0.00 | 79 | 1013.9 |
| 20260505191546 | 83 | 233 | 0.0 | 1.0 | 0.00 | 0.00 | 0.00 | 79 | 1013.9 |
| 20260505191044 | 82 | 264 | 0.0 | 1.0 | 0.00 | 0.00 | 0.00 | 80 | 1014.0 |
| 20260505190538 | 82 | 273 | 1.0 | 1.0 | 0.00 | 0.00 | 0.00 | 80 | 1013.8 |
| 20260505190035 | 82 | 253 | 0.0 | 2.0 | 0.00 | 0.00 | 0.00 | 81 | 1013.9 |
| 20260505185531 | 83 | 281 | 1.0 | 2.0 | 0.00 | 0.00 | 0.00 | 80 | 1013.9 |
| 20260505185028 | 84 | 250 | 1.0 | 3.0 | 0.00 | 0.00 | 0.00 | 79 | 1013.9 |
| 20260505184524 | 84 | 189 | 0.0 | 2.0 | 0.00 | 0.00 | 0.00 | 78 | 1013.7 |
| 20260505184021 | 84 | 205 | 1.0 | 2.0 | 0.00 | 0.00 | 0.00 | 79 | 1013.8 |
| 20260505183518 | 83 | 308 | 1.0 | 1.0 | 0.00 | 0.00 | 0.00 | 79 | 1013.8 |
| 20260505183016 | 83 | 16 | 2.0 | 3.0 | 0.00 | 0.00 | 0.00 | 79 | 1014.0 |
| 20260505182512 | 83 | 346 | 1.0 | 2.0 | 0.00 | 0.00 | 0.00 | 79 | 1013.9 |
| 20260505182009 | 83 | 265 | 0.0 | 2.0 | 0.00 | 0.00 | 0.00 | 80 | 1014.0 |
| 20260505181505 | 83 | 249 | 3.0 | 5.0 | 0.00 | 0.00 | 0.00 | 79 | 1014.0 |
| 20260505181003 | 82 | 200 | 0.0 | 2.0 | 0.00 | 0.00 | 0.00 | 81 | 1013.9 |
| 20260505180458 | 82 | 219 | 0.0 | 1.0 | 0.00 | 0.00 | 0.00 | 81 | 1013.8 |
| 20260505175956 | 82 | 251 | 0.0 | 2.0 | 0.00 | 0.00 | 0.00 | 81 | 1013.9 |
| 20260505175451 | 82 | 342 | 0.0 | 1.0 | 0.00 | 0.00 | 0.00 | 82 | 1013.7 |
| 20260505174948 | 81 | 270 | 0.0 | 1.0 | 0.00 | 0.00 | 0.00 | 83 | 1014.0 |
| 20260505174445 | 81 | 234 | 0.0 | 1.0 | 0.00 | 0.00 | 0.00 | 83 | 1013.9 |
| 20260505173941 | 81 | 267 | 1.0 | 2.0 | 0.00 | 0.00 | 0.00 | 83 | 1014.1 |
| 20260505173438 | 81 | 240 | 0.0 | 2.0 | 0.00 | 0.00 | 0.00 | 83 | 1014.0 |
| 20260505172935 | 81 | 223 | 1.0 | 2.0 | 0.00 | 0.00 | 0.00 | 83 | 1014.2 |
| 20260505172434 | 82 | 248 | 1.0 | 2.0 | 0.00 | 0.00 | 0.00 | 82 | 1014.0 |
| 20260505171932 | 81 | 244 | 0.0 | 1.0 | 0.00 | 0.00 | 0.00 | 84 | 1014.2 |
| 20260505171430 | 80 | 261 | 0.0 | 2.0 | 0.00 | 0.00 | 0.00 | 85 | 1014.0 |
| 20260505170926 | 80 | 255 | 0.0 | 1.0 | 0.00 | 0.00 | 0.00 | 84 | 1014.2 |
| 20260505170423 | 80 | 255 | 1.0 | 1.0 | 0.00 | 0.00 | 0.00 | 84 | 1014.2 |
| 20260505165919 | 80 | 66 | 1.0 | 2.0 | 0.00 | 0.00 | 0.00 | 84 | 1014.2 |
| 20260505165415 | 80 | 236 | 0.0 | 0.0 | 0.00 | 0.00 | 0.00 | 85 | 1014.2 |
| 20260505164910 | 79 | 280 | 1.0 | 2.0 | 0.00 | 0.00 | 0.00 | 86 | 1014.2 |
| 20260505164407 | 79 | 239 | 0.0 | 1.0 | 0.00 | 0.00 | 0.00 | 87 | 1014.4 |
| 20260505163905 | 79 | 239 | 1.0 | 1.0 | 0.00 | 0.00 | 0.00 | 87 | 1014.3 |
| 20260505163404 | 79 | 239 | 0.0 | 1.0 | 0.00 | 0.00 | 0.00 | 87 | 1014.2 |
| 20260505162902 | 79 | 231 | 0.0 | 1.0 | 0.00 | 0.00 | 0.00 | 86 | 1014.4 |
| 20260505162358 | 79 | 239 | 0.0 | 1.0 | 0.00 | 0.00 | 0.00 | 86 | 1014.3 |
| 20260505161855 | 79 | 210 | 1.0 | 1.0 | 0.00 | 0.00 | 0.00 | 86 | 1013.9 |
| 20260505161351 | 79 | 209 | 0.0 | 1.0 | 0.00 | 0.00 | 0.00 | 86 | 1014.0 |
| 20260505160849 | 78 | 230 | 0.0 | 1.0 | 0.00 | 0.00 | 0.00 | 87 | 1014.0 |
| 20260505160347 | 78 | 212 | 1.0 | 2.0 | 0.00 | 0.00 | 0.00 | 87 | 1014.0 |
| 20260505153326 | 78 | 281 | 0.0 | 1.0 | 0.00 | 0.00 | 0.00 | 87 | 1013.7 |
| 20260505152823 | 78 | 265 | 0.0 | 1.0 | 0.00 | 0.00 | 0.00 | 86 | 1013.8 |
| 20260505152320 | 78 | 255 | 0.0 | 3.0 | 0.00 | 0.00 | 0.00 | 86 | 1013.8 |
| 20260505151814 | 78 | 271 | 0.0 | 1.0 | 0.00 | 0.00 | 0.00 | 86 | 1013.7 |
| 20260505151311 | 78 | 281 | 1.0 | 2.0 | 0.00 | 0.00 | 0.00 | 86 | 1013.6 |
| 20260505150808 | 78 | 282 | 0.0 | 1.0 | 0.00 | 0.00 | 0.00 | 87 | 1013.5 |
| 20260505150305 | 78 | 247 | 0.0 | 2.0 | 0.00 | 0.00 | 0.00 | 87 | 1013.7 |
| 20260505140229 | 77 | 232 | 1.0 | 3.0 | 0.00 | 0.00 | 0.00 | 88 | 1013.0 |
| 20260505130153 | 75 | 239 | 0.0 | 1.0 | 0.00 | 0.00 | 0.00 | 92 | 1013.0 |
| 20260505124643 | 74 | 229 | 1.0 | 1.0 | 0.00 | 0.00 | 0.00 | 93 | 1012.5 |
| 20260505124139 | 73 | 300 | 0.0 | 1.0 | 0.00 | 0.00 | 0.00 | 93 | 1012.8 |
| 20260505123630 | 73 | 252 | 0.0 | 1.0 | 0.00 | 0.00 | 0.00 | 94 | 1013.1 |
| 20260505123127 | 73 | 285 | 0.0 | 0.0 | 0.00 | 0.00 | 0.00 | 94 | 1012.9 |
| 20260505122623 | 73 | 288 | 0.0 | 0.0 | 0.00 | 0.00 | 0.00 | 94 | 1013.0 |
| 20260505122120 | 72 | 110 | 3.0 | 5.0 | 0.00 | 0.00 | 0.00 | 95 | 1013.2 |
| 20260505121611 | 72 | 246 | 0.0 | 0.0 | 0.00 | 0.00 | 0.00 | 95 | 1012.8 |
| 20260505121108 | 72 | 236 | 0.0 | 0.0 | 0.00 | 0.00 | 0.00 | 95 | 1012.8 |
| 20260505120604 | 72 | 252 | 0.0 | 0.0 | 0.00 | 0.00 | 0.00 | 95 | 1012.5 |
| 20260505120100 | 72 | 254 | 0.0 | 0.0 | 0.00 | 0.00 | 0.00 | 95 | 1012.6 |
| 20260505115554 | 72 | 244 | 0.0 | 1.0 | 0.00 | 0.00 | 0.00 | 95 | 1012.6 |
| 20260505115052 | 72 | 255 | 0.0 | 0.0 | 0.00 | 0.00 | 0.00 | 95 | 1012.4 |
| 20260505114549 | 72 | 263 | 0.0 | 1.0 | 0.00 | 0.00 | 0.00 | 95 | 1012.4 |
| 20260505114045 | 72 | 236 | 0.0 | 1.0 | 0.00 | 0.00 | 0.00 | 95 | 1012.9 |
| 20260505113542 | 72 | 271 | 0.0 | 0.0 | 0.00 | 0.00 | 0.00 | 95 | 1012.8 |
| 20260505113038 | 72 | 265 | 0.0 | 0.0 | 0.00 | 0.00 | 0.00 | 95 | 1012.6 |
| 20260505112534 | 72 | 261 | 0.0 | 1.0 | 0.00 | 0.00 | 0.00 | 94 | 1012.7 |
| 20260505112032 | 72 | 273 | 0.0 | 0.0 | 0.00 | 0.00 | 0.00 | 94 | 1012.7 |
| 20260505111526 | 72 | 267 | 0.0 | 2.0 | 0.00 | 0.00 | 0.00 | 94 | 1012.6 |
| 20260505111023 | 72 | 216 | 0.0 | 0.0 | 0.00 | 0.00 | 0.00 | 94 | 1012.8 |
| 20260505110519 | 72 | 221 | 0.0 | 1.0 | 0.00 | 0.00 | 0.00 | 94 | 1012.5 |
| 20260505101946 | 71 | 239 | 0.0 | 0.0 | 0.00 | 0.00 | 0.00 | 95 | 1012.6 |
| 20260505101444 | 71 | 268 | 0.0 | 0.0 | 0.00 | 0.00 | 0.00 | 95 | 1012.5 |
| 20260505100940 | 71 | 268 | 0.0 | 0.0 | 0.00 | 0.00 | 0.00 | 94 | 1012.8 |
| 20260505100438 | 71 | 268 | 0.0 | 0.0 | 0.00 | 0.00 | 0.00 | 94 | 1012.9 |
| 20260505095933 | 71 | 268 | 0.0 | 0.0 | 0.00 | 0.00 | 0.00 | 94 | 1012.9 |